Location: Fayetteville
(35.0530°N, 78.8790°W)
Time: 17:23:31
(UTC-04:00)

ISS - Visible Passes

Search period start: 24 April 2014 00:00
Search period end: 04 May 2014 00:00
Orbit: 412 x 418 km, 51.6° (Epoch: 24 April)

Date Brightness Start Highest point End Pass type
(mag) Time Alt. Az. Time Alt. Az. Time Alt. Az.
24 Apr -2.3 21:28:48 10° WNW 21:31:56 38° SW 21:32:35 34° SSW visible
25 Apr -3.2 20:39:49 10° NW 20:43:10 79° SW 20:46:00 14° SE visible
26 Apr -0.5 21:29:14 10° WSW 21:30:34 12° SW 21:31:54 10° SSW visible
27 Apr -1.2 20:39:02 10° WNW 20:41:43 23° SW 20:44:24 10° S visible
